STARLINK-34020, 63939

Orbit data source: Space-Track

STARLINK-34020, 63939 is a payload satellite owned by SpaceX/Seattle (US) in LEO that was launched on Tue, 13 May 2025 UTC via an FALCON 9 launch vehicle from the Air Force Western Test Range (AFWTR). Payload-class satellites include a variety of spacecraft equipped with specific instruments for various scientific and technological missions. These include communications satellites like Starlink; space stations such as the ISS; scientific satellites like the Hubble; Earth observation satellites from companies like Planet Labs, Umbra, and HawkEye 360; GPS; miniature CubeSats for education and research; and military/defense satellites.

Loading next visibility...
Identifier
63939, 2025-098P
Orbit
LEO
Country
Flag of USUS
Related business
Manufacturer
SpaceX/Seattle
Mission
Operational Commercial Communications
Bus & Motor
STARLINK V2MO, Unknown motor
Mass
575 kg wet, ~530 kg dry
Launch date (UTC)
2025-05-13 (7 months ago)
Launch vehicle
FALCON 9
Launch site
Air Force Western Test Range (AFWTR)
Object type
Payload
Rocket body
Debris
Shape & HBR
Box + 2 Pan, 17.7 m
Radar Cross Section
36.964 m², Large (>1 m²)

Expand to show TLE details & history
Last TLE update: 9 hours ago

TLE from 9 hours ago
0 STARLINK-34020
1 63939U 25098P   25349.82996676 -.00008486  00000-0 -70389-3 0  9998
2 63939  70.0006 125.7912 0003240 252.2943 107.7863 14.98349811 33992
Epoch: 2025-12-15T19:55Z
TLE epoch observation values (Epoch: 2025-12-15T19:55:09.128Z)
Latitude
0.00004°
Longitude
102.28028°
Altitude
575.107 km
Speed
7.573 km/s
True Right ascension
08h 23m 09s
True Declination
0° 00' 00"
Sunlit
Object was in full shadow at epoch
Visualization orbit readout
Latitude
Unknown
Longitude
Unknown
Altitude
Unknown
Speed
Unknown
Apparent Right ascension
Unknown
Apparent Declination
Unknown
Sunlit
N/A
Visualization observer readout
Local Sidereal Time
03:12:46
Azimuth
Unknown
Elevation
Unknown
Doppler factor
Unknown
Orbital elements
Apogee altitude
572.194 km
Perigee altitude
567.692 km
Semi-major axis
6,948.08 km
Eccentricity
0.00032
Inclination
70.0006°
RAAN
125.7912°
Arg. of periapsis
252.2943°
True anomaly
107.82165°
Mean anomaly
107.7863°
Eccentric anomaly
107.80397°
Mean motion
3.74754 °/min
Orbital period
96.06 mins
BSTAR
-0.00070389
Loading maneuver chart data...
Computing Atmospheric mass density...
Loading historical data...
Loading historical data...
Loading historical data...
Loading historical data...
Loading historical data...
Loading historical data...
Loading historical data...

Documentation

Showing up to 5 results
|